Alturas, CA

4:10 AM PDT on August 25, 2016 (GMT -0700)
Alturas Municipal

Weather History for KAAT - October, 2011

Change the Weather History Date:

Friday, October 28, 2011

  Actual Average Record
Temperature  
Mean Temperature 42 °F 43 °F  
Max Temperature 66 °F 59 °F 82 °F (1968)
Min Temperature 17 °F 26 °F 13 °F (1948)
Degree Days  
Heating Degree Days 23 22  
Month to date heating degree days 478 497  
Since 1 July heating degree days 640 874  
Cooling Degree Days 0 0  
Month to date cooling degree days 0 0  
Year to date cooling degree days 122 156  
Moisture  
Dew Point 13 °F    
Average Humidity 42    
Maximum Humidity 74    
Minimum Humidity 9    
Precipitation  
Precipitation 0.00 in 0.05 in 0.86 in (2004)
Month to date precipitation 0.69 0.86  
Year to date precipitation 9.23 10.52  
Sea Level Pressure  
Sea Level Pressure 30.22 in    
Wind  
Wind Speed 2 mph (West)    
Max Wind Speed 12 mph    
Max Gust Speed 15 mph    
Visibility 9 miles    
Events      
T = Trace of Precipitation, MM = Missing Value Source: NWS Daily Summary

Daily Weather History Graph

Daily Weather History Graph

Search for Another Location

Airport or City:

Trip Planner

Search our weather history database for the weather conditions in past years. The results will help you decide how hot, cold, wet, or windy it might be!

Date:

Astronomy

Oct. 28, 2011 Rise Set
Actual Time 7:28 AM PDT 6:02 PM PDT
Civil Twilight 7:00 AM PDT 6:30 PM PDT
Nautical Twilight 6:27 AM PDT 7:03 PM PDT
Astronomical Twilight 5:55 AM PDT 7:35 PM PDT
Moon 9:52 AM PDT (10/28) 7:28 PM PDT (10/28)
Length of Visible Light 11h 30m
Length of Day
10h 33m
Waxing Crescent, 6% of the Moon is Illuminated
Oct 28
Waxing Crescent
Nov 2
First Quarter
Nov 10
Full
Nov 18
Last Quarter
Nov 24
New

Hourly Weather History & Observations

Time (PDT) Temp. Windchill Dew Point Humidity Pressure Visibility Wind Dir Wind Speed Gust Speed Precip Events Conditions
12:31 AM 30.2 °F - 17.6 °F 60% 30.21 in 2.5 mi Calm Calm - N/A   Haze
12:38 AM 28.4 °F - 15.8 °F 59% 30.21 in 5.0 mi Calm Calm - N/A   Haze
12:55 AM 27.0 °F - 14.0 °F 58% 30.22 in 10.0 mi Calm Calm - N/A   Clear
1:55 AM 27.0 °F - 14.0 °F 58% 30.21 in 10.0 mi Calm Calm - N/A   Clear
2:55 AM 24.1 °F - 12.9 °F 62% 30.21 in 9.0 mi Calm Calm - N/A   Clear
3:55 AM 21.9 °F 17.2 °F 14.0 °F 72% 30.21 in 10.0 mi NE 3.5 mph - N/A   Clear
4:55 AM 21.0 °F - 14.0 °F 74% 30.21 in 10.0 mi Calm Calm - N/A   Clear
5:55 AM 19.9 °F - 10.9 °F 68% 30.23 in 10.0 mi Calm Calm - N/A   Clear
7:55 AM 17.1 °F - 10.9 °F 77% 30.29 in 10.0 mi Calm Calm - N/A   Clear
8:55 AM 28.9 °F - 17.1 °F 61% 30.28 in 8.0 mi Calm Calm - N/A   Clear
9:55 AM 44.1 °F - 18.0 °F 35% 30.25 in 10.0 mi Calm Calm - N/A   Clear
10:55 AM 51.8 °F - 32.0 °F 47% - 10.0 mi Variable 4.6 mph - N/A   Clear
11:00 AM - - - N/A% - - North - - N/A   Unknown
12:55 PM 62.1 °F - 6.1 °F 11% 30.18 in 10.0 mi Calm Calm - N/A   Clear
1:55 PM 64.0 °F - 7.0 °F 11% 30.15 in 10.0 mi Calm Calm - N/A   Clear
2:55 PM 64.9 °F - 7.0 °F 10% 30.16 in 10.0 mi WNW 6.9 mph - N/A   Clear
3:55 PM 64.9 °F - 6.1 °F 10% 30.15 in 10.0 mi Variable 3.5 mph - N/A   Clear
4:55 PM 63.0 °F - 3.0 °F 9% 30.16 in 10.0 mi WSW 5.8 mph - N/A   Clear
5:55 PM 57.0 °F - 8.1 °F 14% 30.18 in 10.0 mi WSW 3.5 mph - N/A   Clear
6:55 PM 48.9 °F - 10.9 °F 22% 30.22 in 10.0 mi SW 4.6 mph - N/A   Clear
7:55 PM 45.0 °F - 12.0 °F 26% 30.25 in 10.0 mi Calm Calm - N/A   Clear
8:55 PM 41.0 °F 39.0 °F 15.1 °F 35% 30.25 in 10.0 mi East 3.5 mph - N/A   Clear
9:55 PM 35.1 °F - 15.1 °F 44% 30.23 in 8.0 mi Calm Calm - N/A   Clear
10:55 PM 28.0 °F - 12.9 °F 53% 30.26 in 10.0 mi Calm Calm - N/A   Clear
11:55 PM 32.0 °F - 15.1 °F 50% 30.24 in 9.0 mi Calm Calm - N/A   Clear